Time,TemperatureF,DewpointF,PressureIn,WindDirection,WindDirectionDegrees,WindSpeedMPH,WindSpeedGustMPH,Humidity,HourlyPrecipIn,Conditions,Clouds,dailyrainin,SoftwareType,DateUTC
2013-01-11 00:01:00,23.0,15.7,30.45,WSW,248,0.7,0.7,73,0.00,,,0.00,WUHU216HW,2013-01-11 05:01:00,
2013-01-11 00:02:00,22.9,15.9,30.46,WSW,248,0.4,0.7,74,0.00,,,0.00,WUHU216HW,2013-01-11 05:02:00,
2013-01-11 00:03:00,22.9,15.9,30.46,WSW,248,0.4,0.7,74,0.00,,,0.00,WUHU216HW,2013-01-11 05:03:00,
2013-01-11 00:08:00,22.9,15.9,30.46,WSW,248,0.0,0.9,74,0.00,,,0.00,WUHU216HW,2013-01-11 05:08:00,
2013-01-11 00:13:00,22.7,15.9,30.46,East,90,0.0,0.9,75,0.00,,,0.00,WUHU216HW,2013-01-11 05:13:00,
2013-01-11 00:18:00,22.0,15.0,30.46,East,90,0.0,1.1,74,0.00,,,0.00,WUHU216HW,2013-01-11 05:18:00,
2013-01-11 00:23:00,21.6,14.9,30.46,WNW,293,0.0,1.1,75,0.00,,,0.00,WUHU216HW,2013-01-11 05:23:00,
2013-01-11 00:28:00,21.6,14.9,30.46,West,270,0.2,0.9,75,0.00,,,0.00,WUHU216HW,2013-01-11 05:28:00,
2013-01-11 00:33:00,21.4,14.7,30.46,WSW,248,0.0,0.9,75,0.00,,,0.00,WUHU216HW,2013-01-11 05:33:00,
2013-01-11 00:38:00,21.4,14.9,30.46,NW,315,0.0,0.0,76,0.00,,,0.00,WUHU216HW,2013-01-11 05:38:00,
2013-01-11 00:43:00,21.4,14.9,30.46,SSE,158,0.2,0.7,76,0.00,,,0.00,WUHU216HW,2013-01-11 05:43:00,
2013-01-11 00:48:00,21.2,14.5,30.46,SSE,158,0.0,0.7,75,0.00,,,0.00,WUHU216HW,2013-01-11 05:48:00,
2013-01-11 00:53:00,20.9,14.1,30.46,WNW,293,0.0,0.7,75,0.00,,,0.00,WUHU216HW,2013-01-11 05:53:00,
2013-01-11 00:58:00,20.7,14.2,30.46,ENE,68,0.4,0.9,76,0.00,,,0.00,WUHU216HW,2013-01-11 05:58:00,
2013-01-11 01:03:00,20.3,14.2,30.46,NNE,23,0.2,0.9,77,0.00,,,0.00,WUHU216HW,2013-01-11 06:03:00,
2013-01-11 01:08:00,19.8,13.7,30.46,NNE,23,0.0,0.7,77,0.00,,,0.00,WUHU216HW,2013-01-11 06:08:00,
2013-01-11 01:13:00,19.8,14.0,30.46,NE,45,0.4,0.4,78,0.01,,,0.01,WUHU216HW,2013-01-11 06:13:00,
2013-01-11 01:18:00,19.6,13.8,30.46,ENE,68,0.0,0.4,78,0.01,,,0.01,WUHU216HW,2013-01-11 06:18:00,
2013-01-11 01:23:00,19.6,13.8,30.45,North,0,0.0,0.4,78,0.01,,,0.01,WUHU216HW,2013-01-11 06:23:00,
2013-01-11 01:28:00,19.4,13.6,30.45,West,270,0.0,0.0,78,0.01,,,0.01,WUHU216HW,2013-01-11 06:28:00,
2013-01-11 01:33:00,19.6,14.1,30.45,West,270,0.4,0.7,79,0.01,,,0.01,WUHU216HW,2013-01-11 06:33:00,
2013-01-11 01:38:00,19.6,13.8,30.45,West,270,0.0,0.9,78,0.01,,,0.01,WUHU216HW,2013-01-11 06:38:00,
2013-01-11 01:43:00,19.4,14.0,30.45,NW,315,0.0,0.9,79,0.01,,,0.01,WUHU216HW,2013-01-11 06:43:00,
2013-01-11 01:48:00,19.3,14.0,30.45,North,0,1.1,1.6,80,0.01,,,0.01,WUHU216HW,2013-01-11 06:48:00,
2013-01-11 01:53:00,18.7,13.2,30.45,South,180,0.0,1.6,79,0.01,,,0.01,WUHU216HW,2013-01-11 06:53:00,
2013-01-11 01:58:00,18.4,13.1,30.45,ENE,68,0.7,1.1,80,0.01,,,0.01,WUHU216HW,2013-01-11 06:58:00,
2013-01-11 02:03:00,17.8,12.6,30.45,NNW,338,0.7,1.6,80,0.01,,,0.01,WUHU216HW,2013-01-11 07:03:00,
2013-01-11 02:08:00,17.6,12.4,30.46,South,180,1.1,1.6,80,0.01,,,0.01,WUHU216HW,2013-01-11 07:08:00,
2013-01-11 02:13:00,17.6,12.4,30.45,NNW,338,0.7,1.3,80,0.00,,,0.01,WUHU216HW,2013-01-11 07:13:00,
2013-01-11 02:18:00,17.3,12.1,30.45,ESE,113,1.3,1.6,80,0.00,,,0.01,WUHU216HW,2013-01-11 07:18:00,
2013-01-11 02:23:00,17.1,11.6,30.45,North,0,0.0,1.6,79,0.00,,,0.01,WUHU216HW,2013-01-11 07:23:00,
2013-01-11 02:28:00,17.3,12.1,30.45,ESE,113,1.3,1.8,80,0.00,,,0.01,WUHU216HW,2013-01-11 07:28:00,
2013-01-11 02:33:00,17.1,12.0,30.45,North,0,0.0,1.8,80,0.00,,,0.01,WUHU216HW,2013-01-11 07:33:00,
2013-01-11 02:38:00,17.5,13.1,30.45,NNE,23,0.4,1.3,83,0.00,,,0.01,WUHU216HW,2013-01-11 07:38:00,
2013-01-11 02:43:00,17.5,12.8,30.45,North,0,0.0,1.3,82,0.00,,,0.01,WUHU216HW,2013-01-11 07:43:00,
2013-01-11 02:48:00,17.6,13.0,30.45,NNW,338,1.1,1.3,82,0.00,,,0.01,WUHU216HW,2013-01-11 07:48:00,
2013-01-11 02:53:00,16.9,12.3,30.44,ENE,68,0.7,1.1,82,0.00,,,0.01,WUHU216HW,2013-01-11 07:53:00,
2013-01-11 02:58:00,16.7,12.2,30.44,North,0,0.9,1.1,82,0.00,,,0.01,WUHU216HW,2013-01-11 07:58:00,
2013-01-11 03:03:00,16.6,11.7,30.44,NNW,338,0.0,0.9,81,0.00,,,0.01,WUHU216HW,2013-01-11 08:03:00,
2013-01-11 03:08:00,16.6,12.0,30.43,NNW,338,1.1,1.1,82,0.00,,,0.01,WUHU216HW,2013-01-11 08:08:00,
2013-01-11 03:13:00,16.6,12.0,30.43,NNW,338,0.0,1.1,82,0.00,,,0.01,WUHU216HW,2013-01-11 08:13:00,
2013-01-11 03:18:00,16.4,11.5,30.42,North,0,0.0,1.1,81,0.00,,,0.01,WUHU216HW,2013-01-11 08:18:00,
2013-01-11 03:23:00,16.2,11.3,30.42,SE,135,0.4,1.3,81,0.00,,,0.01,WUHU216HW,2013-01-11 08:23:00,
2013-01-11 03:28:00,16.2,11.3,30.42,NE,45,0.0,1.3,81,0.00,,,0.01,WUHU216HW,2013-01-11 08:28:00,
2013-01-11 03:33:00,16.0,11.3,30.42,ESE,113,0.0,0.7,81,0.00,,,0.01,WUHU216HW,2013-01-11 08:33:00,
2013-01-11 03:38:00,16.2,11.6,30.42,NE,45,1.6,1.6,82,0.00,,,0.01,WUHU216HW,2013-01-11 08:38:00,
2013-01-11 03:43:00,16.0,12.3,30.42,ENE,68,1.1,1.8,85,0.00,,,0.01,WUHU216HW,2013-01-11 08:43:00,
2013-01-11 03:48:00,16.4,12.6,30.42,ESE,113,0.7,1.8,85,0.00,,,0.01,WUHU216HW,2013-01-11 08:48:00,
2013-01-11 03:53:00,16.6,12.5,30.42,SSW,203,0.0,1.6,84,0.00,,,0.01,WUHU216HW,2013-01-11 08:53:00,
2013-01-11 03:58:00,16.9,12.8,30.42,North,0,1.3,1.3,84,0.00,,,0.01,WUHU216HW,2013-01-11 08:58:00,
2013-01-11 04:03:00,16.9,12.6,30.41,NNE,23,0.0,1.3,83,0.00,,,0.01,WUHU216HW,2013-01-11 09:03:00,
2013-01-11 04:08:00,16.9,12.8,30.41,East,90,0.0,1.3,84,0.00,,,0.01,WUHU216HW,2013-01-11 09:08:00,
2013-01-11 04:13:00,16.9,12.8,30.41,North,0,0.2,1.1,84,0.00,,,0.01,WUHU216HW,2013-01-11 09:13:00,
2013-01-11 04:18:00,16.9,12.6,30.40,NNE,23,0.4,0.7,83,0.00,,,0.01,WUHU216HW,2013-01-11 09:18:00,
2013-01-11 04:23:00,16.9,12.6,30.40,East,90,0.2,1.6,83,0.00,,,0.01,WUHU216HW,2013-01-11 09:23:00,
2013-01-11 04:28:00,16.6,12.0,30.40,ENE,68,0.4,1.6,82,0.00,,,0.01,WUHU216HW,2013-01-11 09:28:00,
2013-01-11 04:33:00,16.6,12.5,30.40,NE,45,0.4,1.3,84,0.00,,,0.01,WUHU216HW,2013-01-11 09:33:00,
2013-01-11 04:38:00,16.4,12.3,30.39,ENE,68,0.7,1.3,84,0.00,,,0.01,WUHU216HW,2013-01-11 09:38:00,
2013-01-11 04:43:00,16.6,12.5,30.38,East,90,0.2,1.3,84,0.00,,,0.01,WUHU216HW,2013-01-11 09:43:00,
2013-01-11 04:48:00,16.6,12.5,30.38,ESE,113,0.2,1.3,84,0.00,,,0.01,WUHU216HW,2013-01-11 09:48:00,
2013-01-11 04:53:00,16.6,12.5,30.38,West,270,0.7,0.7,84,0.00,,,0.01,WUHU216HW,2013-01-11 09:53:00,
2013-01-11 04:58:00,16.6,12.3,30.37,WSW,248,0.4,1.3,83,0.00,,,0.01,WUHU216HW,2013-01-11 09:58:00,
2013-01-11 05:03:00,16.9,12.6,30.38,WSW,248,0.4,1.3,83,0.00,,,0.01,WUHU216HW,2013-01-11 10:03:00,
2013-01-11 05:08:00,16.9,12.3,30.38,SSW,203,0.0,1.1,82,0.00,,,0.01,WUHU216HW,2013-01-11 10:08:00,
2013-01-11 05:13:00,17.1,12.4,30.38,ENE,68,0.7,0.7,82,0.00,,,0.01,WUHU216HW,2013-01-11 10:13:00,
2013-01-11 05:18:00,16.7,12.4,30.38,NE,45,1.3,2.0,83,0.00,,,0.01,WUHU216HW,2013-01-11 10:18:00,
2013-01-11 05:23:00,16.4,12.3,30.38,NE,45,0.4,2.0,84,0.00,,,0.01,WUHU216HW,2013-01-11 10:23:00,
2013-01-11 05:28:00,16.6,13.0,30.38,NE,45,1.3,1.8,86,0.00,,,0.01,WUHU216HW,2013-01-11 10:28:00,
2013-01-11 05:33:00,16.9,13.3,30.38,NE,45,0.9,1.8,86,0.00,,,0.01,WUHU216HW,2013-01-11 10:33:00,
2013-01-11 05:38:00,16.9,13.3,30.38,ENE,68,2.0,2.9,86,0.00,,,0.01,WUHU216HW,2013-01-11 10:38:00,
2013-01-11 05:43:00,16.9,13.3,30.38,NNE,23,0.7,2.9,86,0.00,,,0.01,WUHU216HW,2013-01-11 10:43:00,
2013-01-11 05:48:00,16.9,13.3,30.38,ENE,68,0.4,2.0,86,0.00,,,0.01,WUHU216HW,2013-01-11 10:48:00,
2013-01-11 05:53:00,16.9,13.1,30.39,ESE,113,0.0,1.8,85,0.00,,,0.01,WUHU216HW,2013-01-11 10:53:00,
2013-01-11 05:58:00,16.9,12.8,30.40,West,270,0.7,0.7,84,0.00,,,0.01,WUHU216HW,2013-01-11 10:58:00,
2013-01-11 06:03:00,17.1,13.0,30.39,West,270,0.0,0.7,84,0.00,,,0.01,WUHU216HW,2013-01-11 11:03:00,
2013-01-11 06:08:00,16.9,12.6,30.40,ENE,68,0.0,1.1,83,0.00,,,0.01,WUHU216HW,2013-01-11 11:08:00,
2013-01-11 06:13:00,16.6,12.3,30.40,NNE,23,0.0,1.1,83,0.00,,,0.01,WUHU216HW,2013-01-11 11:13:00,
2013-01-11 06:18:00,16.2,11.9,30.40,NNE,23,0.0,0.0,83,0.00,,,0.01,WUHU216HW,2013-01-11 11:18:00,
2013-01-11 06:23:00,16.0,11.7,30.40,NNW,338,0.4,0.9,83,0.00,,,0.01,WUHU216HW,2013-01-11 11:23:00,
2013-01-11 06:28:00,15.8,11.5,30.41,NNW,338,0.0,0.9,83,0.00,,,0.01,WUHU216HW,2013-01-11 11:28:00,
2013-01-11 06:33:00,16.0,11.7,30.41,North,0,0.0,0.4,83,0.00,,,0.01,WUHU216HW,2013-01-11 11:33:00,
2013-01-11 06:38:00,15.8,11.5,30.41,North,0,0.0,0.4,83,0.00,,,0.01,WUHU216HW,2013-01-11 11:38:00,
2013-01-11 06:43:00,15.5,11.0,30.42,NNE,23,0.4,0.4,82,0.00,,,0.01,WUHU216HW,2013-01-11 11:43:00,
2013-01-11 06:48:00,14.9,10.7,30.42,NE,45,0.4,1.1,83,0.00,,,0.01,WUHU216HW,2013-01-11 11:48:00,
2013-01-11 06:53:00,14.8,10.5,30.42,North,0,0.0,1.1,83,0.00,,,0.01,WUHU216HW,2013-01-11 11:53:00,
2013-01-11 06:58:00,14.9,11.0,30.42,North,0,0.0,0.7,84,0.00,,,0.01,WUHU216HW,2013-01-11 11:58:00,
2013-01-11 07:03:00,14.8,10.8,30.42,North,0,0.0,0.4,84,0.00,,,0.01,WUHU216HW,2013-01-11 12:03:00,
2013-01-11 07:08:00,14.8,10.5,30.42,NNE,23,0.2,0.4,83,0.00,,,0.01,WUHU216HW,2013-01-11 12:08:00,
2013-01-11 07:13:00,14.6,10.4,30.42,North,0,0.0,0.4,83,0.00,,,0.01,WUHU216HW,2013-01-11 12:13:00,
2013-01-11 07:18:00,14.2,10.0,30.42,NNE,23,0.2,0.2,83,0.00,,,0.01,WUHU216HW,2013-01-11 12:18:00,
2013-01-11 07:23:00,14.4,10.5,30.42,NE,45,0.0,0.4,84,0.00,,,0.01,WUHU216HW,2013-01-11 12:23:00,
2013-01-11 07:28:00,14.4,10.5,30.42,North,0,0.0,0.4,84,0.00,,,0.01,WUHU216HW,2013-01-11 12:28:00,
2013-01-11 07:33:00,14.0,9.8,30.42,WNW,293,0.4,1.1,83,0.00,,,0.01,WUHU216HW,2013-01-11 12:33:00,
2013-01-11 07:38:00,13.9,9.6,30.42,North,0,0.4,1.1,83,0.00,,,0.01,WUHU216HW,2013-01-11 12:38:00,
2013-01-11 07:43:00,13.7,9.5,30.42,NNW,338,0.0,0.9,83,0.00,,,0.01,WUHU216HW,2013-01-11 12:43:00,
2013-01-11 07:48:00,13.9,9.6,30.42,NNW,338,0.0,0.4,83,0.00,,,0.01,WUHU216HW,2013-01-11 12:48:00,
2013-01-11 07:53:00,14.0,9.5,30.42,NNE,23,0.0,0.0,82,0.00,,,0.01,WUHU216HW,2013-01-11 12:53:00,
2013-01-11 07:58:00,13.7,9.2,30.42,NNE,23,0.4,0.7,82,0.00,,,0.01,WUHU216HW,2013-01-11 12:58:00,
2013-01-11 08:03:00,13.7,9.2,30.42,ENE,68,0.7,0.9,82,0.00,,,0.01,WUHU216HW,2013-01-11 13:03:00,
2013-01-11 08:08:00,13.7,9.5,30.42,ENE,68,0.7,0.9,83,0.00,,,0.01,WUHU216HW,2013-01-11 13:08:00,
2013-01-11 08:13:00,13.9,9.6,30.42,NNE,23,0.4,0.9,83,0.00,,,0.01,WUHU216HW,2013-01-11 13:13:00,
2013-01-11 08:18:00,14.4,10.5,30.42,NE,45,0.0,0.9,84,0.00,,,0.01,WUHU216HW,2013-01-11 13:18:00,
2013-01-11 08:23:00,15.1,11.2,30.41,ENE,68,0.4,0.7,84,0.00,,,0.01,WUHU216HW,2013-01-11 13:23:00,
2013-01-11 08:28:00,15.7,11.6,30.41,ENE,68,0.0,0.7,84,0.00,,,0.01,WUHU216HW,2013-01-11 13:28:00,
2013-01-11 08:33:00,16.4,12.3,30.41,ENE,68,0.0,0.4,84,0.00,,,0.01,WUHU216HW,2013-01-11 13:33:00,
2013-01-11 08:38:00,16.9,12.6,30.40,ENE,68,0.0,0.0,83,0.00,,,0.01,WUHU216HW,2013-01-11 13:38:00,
2013-01-11 08:43:00,17.6,13.2,30.40,ENE,68,0.0,0.0,83,0.00,,,0.01,WUHU216HW,2013-01-11 13:43:00,
2013-01-11 08:48:00,18.2,13.5,30.40,ENE,68,0.0,0.0,82,0.00,,,0.01,WUHU216HW,2013-01-11 13:48:00,
2013-01-11 08:53:00,18.4,13.7,30.40,ENE,68,0.0,0.0,82,0.00,,,0.01,WUHU216HW,2013-01-11 13:53:00,
2013-01-11 08:58:00,18.5,13.9,30.40,ENE,68,0.0,0.0,82,0.00,,,0.01,WUHU216HW,2013-01-11 13:58:00,
2013-01-11 09:03:00,19.1,14.4,30.39,ENE,68,0.0,0.0,82,0.00,,,0.01,WUHU216HW,2013-01-11 14:03:00,
2013-01-11 09:08:00,19.6,14.9,30.39,ENE,68,0.0,0.0,82,0.00,,,0.01,WUHU216HW,2013-01-11 14:08:00,
2013-01-11 09:13:00,20.0,15.0,30.39,ENE,68,0.0,0.0,81,0.00,,,0.01,WUHU216HW,2013-01-11 14:13:00,
2013-01-11 09:18:00,20.2,14.9,30.39,ENE,68,0.4,0.4,80,0.00,,,0.01,WUHU216HW,2013-01-11 14:18:00,
2013-01-11 09:23:00,20.5,15.3,30.38,ENE,68,0.0,0.4,80,0.00,,,0.01,WUHU216HW,2013-01-11 14:23:00,
2013-01-11 09:28:00,20.9,15.7,30.38,SSE,158,0.7,0.9,80,0.00,,,0.01,WUHU216HW,2013-01-11 14:28:00,
2013-01-11 09:33:00,21.2,16.0,30.38,SSE,158,0.4,1.1,80,0.00,,,0.01,WUHU216HW,2013-01-11 14:33:00,
2013-01-11 09:38:00,21.8,16.6,30.38,SSW,203,1.3,1.8,80,0.00,,,0.01,WUHU216HW,2013-01-11 14:38:00,
2013-01-11 09:43:00,22.1,16.7,30.38,South,180,1.1,1.8,79,0.00,,,0.01,WUHU216HW,2013-01-11 14:43:00,
2013-01-11 09:48:00,23.0,17.6,30.38,South,180,1.3,1.8,79,0.00,,,0.01,WUHU216HW,2013-01-11 14:48:00,
2013-01-11 09:53:00,23.4,17.6,30.38,SSE,158,0.7,1.6,78,0.00,,,0.01,WUHU216HW,2013-01-11 14:53:00,
2013-01-11 09:58:00,23.6,17.7,30.37,SSE,158,1.1,1.3,78,0.00,,,0.01,WUHU216HW,2013-01-11 14:58:00,
2013-01-11 10:03:00,23.9,18.1,30.37,SSE,158,0.9,1.3,78,0.00,,,0.01,WUHU216HW,2013-01-11 15:03:00,
2013-01-11 10:08:00,24.1,18.3,30.37,SSE,158,1.3,1.3,78,0.00,,,0.01,WUHU216HW,2013-01-11 15:08:00,
2013-01-11 10:13:00,24.3,18.5,30.37,SSE,158,1.6,1.8,78,0.00,,,0.01,WUHU216HW,2013-01-11 15:13:00,
2013-01-11 10:18:00,24.7,18.5,30.36,South,180,0.9,1.8,77,0.00,,,0.01,WUHU216HW,2013-01-11 15:18:00,
2013-01-11 10:23:00,25.0,18.8,30.36,WSW,248,0.7,1.8,77,0.00,,,0.01,WUHU216HW,2013-01-11 15:23:00,
2013-01-11 10:28:00,25.2,18.6,30.35,ENE,68,0.0,1.8,76,0.00,,,0.01,WUHU216HW,2013-01-11 15:28:00,
2013-01-11 10:33:00,25.6,19.0,30.35,SSW,203,0.0,0.9,76,0.00,,,0.01,WUHU216HW,2013-01-11 15:33:00,
2013-01-11 10:38:00,25.9,19.4,30.35,SSW,203,1.1,1.1,76,0.00,,,0.01,WUHU216HW,2013-01-11 15:38:00,
2013-01-11 10:43:00,26.5,19.5,30.34,SSW,203,1.1,1.8,75,0.00,,,0.01,WUHU216HW,2013-01-11 15:43:00,
2013-01-11 10:48:00,26.6,19.7,30.34,WSW,248,1.1,2.2,75,0.00,,,0.01,WUHU216HW,2013-01-11 15:48:00,
2013-01-11 10:53:00,27.0,19.8,30.33,SSW,203,1.3,2.2,74,0.00,,,0.01,WUHU216HW,2013-01-11 15:53:00,
2013-01-11 10:58:00,27.5,20.6,30.33,SW,225,1.3,1.8,75,0.00,,,0.01,WUHU216HW,2013-01-11 15:58:00,
2013-01-11 11:03:00,27.7,20.8,30.32,SSW,203,2.0,2.2,75,0.00,,,0.01,WUHU216HW,2013-01-11 16:03:00,
2013-01-11 11:08:00,27.7,20.5,30.32,SW,225,0.9,2.2,74,0.00,,,0.01,WUHU216HW,2013-01-11 16:08:00,
2013-01-11 11:13:00,28.1,21.2,30.31,SSW,203,1.8,2.0,75,0.00,,,0.01,WUHU216HW,2013-01-11 16:13:00,
2013-01-11 11:18:00,28.3,21.1,30.31,SW,225,1.1,1.8,74,0.00,,,0.01,WUHU216HW,2013-01-11 16:18:00,
2013-01-11 11:23:00,28.4,21.3,30.31,SSW,203,2.0,2.0,74,0.00,,,0.01,WUHU216HW,2013-01-11 16:23:00,
2013-01-11 11:28:00,28.4,20.9,30.30,SSW,203,1.8,2.5,73,0.00,,,0.01,WUHU216HW,2013-01-11 16:28:00,
2013-01-11 11:33:00,28.4,20.9,30.30,SSW,203,2.0,2.5,73,0.00,,,0.01,WUHU216HW,2013-01-11 16:33:00,
2013-01-11 11:38:00,28.4,20.9,30.30,WSW,248,1.1,2.9,73,0.00,,,0.01,WUHU216HW,2013-01-11 16:38:00,
2013-01-11 11:43:00,29.2,21.6,30.30,SW,225,1.1,2.9,73,0.00,,,0.01,WUHU216HW,2013-01-11 16:43:00,
2013-01-11 11:48:00,29.3,21.4,30.29,SSW,203,0.7,1.8,72,0.00,,,0.01,WUHU216HW,2013-01-11 16:48:00,
2013-01-11 11:53:00,29.7,21.8,30.29,SSW,203,0.4,1.3,72,0.00,,,0.01,WUHU216HW,2013-01-11 16:53:00,
2013-01-11 11:58:00,30.1,22.1,30.28,SSW,203,0.7,1.3,72,0.00,,,0.01,WUHU216HW,2013-01-11 16:58:00,
2013-01-11 12:03:00,30.6,22.6,30.28,South,180,0.7,0.9,72,0.00,,,0.01,WUHU216HW,2013-01-11 17:03:00,
2013-01-11 12:08:00,31.1,22.9,30.27,South,180,0.0,0.9,71,0.00,,,0.01,WUHU216HW,2013-01-11 17:08:00,
2013-01-11 12:13:00,31.3,23.1,30.27,SSW,203,0.7,1.3,71,0.00,,,0.01,WUHU216HW,2013-01-11 17:13:00,
2013-01-11 12:18:00,31.5,22.9,30.27,WSW,248,1.8,1.8,70,0.00,,,0.01,WUHU216HW,2013-01-11 17:18:00,
2013-01-11 12:23:00,31.1,21.8,30.27,SW,225,2.5,2.5,68,0.00,,,0.01,WUHU216HW,2013-01-11 17:23:00,
2013-01-11 12:28:00,30.6,21.6,30.27,WSW,248,1.3,2.5,69,0.00,,,0.01,WUHU216HW,2013-01-11 17:28:00,
2013-01-11 12:33:00,30.6,21.6,30.27,WSW,248,1.8,2.5,69,0.00,,,0.01,WUHU216HW,2013-01-11 17:33:00,
2013-01-11 12:38:00,30.8,21.8,30.26,WSW,248,1.8,2.2,69,0.00,,,0.01,WUHU216HW,2013-01-11 17:38:00,
2013-01-11 12:43:00,31.0,21.6,30.26,WSW,248,1.8,2.2,68,0.00,,,0.01,WUHU216HW,2013-01-11 17:43:00,
2013-01-11 12:48:00,31.5,22.1,30.26,SW,225,0.9,2.2,68,0.00,,,0.01,WUHU216HW,2013-01-11 17:48:00,
2013-01-11 12:53:00,32.0,22.7,30.25,WSW,248,1.1,1.8,68,0.00,,,0.01,WUHU216HW,2013-01-11 17:53:00,
2013-01-11 12:58:00,32.2,23.2,30.25,West,270,0.7,1.8,69,0.00,,,0.01,WUHU216HW,2013-01-11 17:58:00,
2013-01-11 13:03:00,32.4,23.1,30.25,West,270,1.1,1.8,68,0.00,,,0.01,WUHU216HW,2013-01-11 18:03:00,
2013-01-11 13:08:00,32.2,22.5,30.25,WSW,248,1.1,2.7,67,0.00,,,0.01,WUHU216HW,2013-01-11 18:08:00,
2013-01-11 13:13:00,32.0,22.3,30.25,WSW,248,1.6,2.7,67,0.00,,,0.01,WUHU216HW,2013-01-11 18:13:00,
2013-01-11 13:18:00,32.0,22.3,30.25,West,270,1.3,2.7,67,0.00,,,0.01,WUHU216HW,2013-01-11 18:18:00,
2013-01-11 13:23:00,32.0,22.3,30.24,WSW,248,1.1,2.7,67,0.00,,,0.01,WUHU216HW,2013-01-11 18:23:00,
2013-01-11 13:28:00,32.0,22.3,30.24,WNW,293,1.1,2.7,67,0.00,,,0.01,WUHU216HW,2013-01-11 18:28:00,
2013-01-11 13:33:00,32.2,22.5,30.24,West,270,0.0,2.5,67,0.00,,,0.01,WUHU216HW,2013-01-11 18:33:00,
2013-01-11 13:38:00,32.6,22.8,30.24,SSE,158,0.0,0.9,67,0.00,,,0.01,WUHU216HW,2013-01-11 18:38:00,
2013-01-11 13:43:00,33.1,23.3,30.24,SSE,158,0.0,0.0,67,0.00,,,0.01,WUHU216HW,2013-01-11 18:43:00,
2013-01-11 13:48:00,33.7,23.8,30.24,SSE,158,0.0,0.0,67,0.00,,,0.01,WUHU216HW,2013-01-11 18:48:00,
2013-01-11 13:53:00,34.0,24.1,30.24,SW,225,0.7,0.7,67,0.00,,,0.01,WUHU216HW,2013-01-11 18:53:00,
2013-01-11 13:58:00,34.2,24.3,30.23,WSW,248,1.1,1.1,67,0.00,,,0.01,WUHU216HW,2013-01-11 18:58:00,
2013-01-11 14:03:00,33.8,22.9,30.23,SW,225,1.8,2.2,64,0.00,,,0.01,WUHU216HW,2013-01-11 19:03:00,
2013-01-11 14:08:00,33.1,22.6,30.23,WSW,248,1.8,2.5,65,0.00,,,0.01,WUHU216HW,2013-01-11 19:08:00,
2013-01-11 14:13:00,32.8,22.6,30.23,WSW,248,2.9,2.9,66,0.00,,,0.01,WUHU216HW,2013-01-11 19:13:00,
2013-01-11 14:18:00,32.8,22.6,30.23,West,270,3.4,4.5,66,0.00,,,0.01,WUHU216HW,2013-01-11 19:18:00,
2013-01-11 14:23:00,32.4,22.3,30.23,WSW,248,2.5,4.5,66,0.00,,,0.01,WUHU216HW,2013-01-11 19:23:00,
2013-01-11 14:28:00,32.0,22.0,30.23,WSW,248,1.8,3.4,66,0.00,,,0.01,WUHU216HW,2013-01-11 19:28:00,
2013-01-11 14:33:00,32.0,22.0,30.23,WSW,248,1.6,2.9,66,0.00,,,0.01,WUHU216HW,2013-01-11 19:33:00,
2013-01-11 14:38:00,32.0,22.0,30.22,NNW,338,0.7,2.9,66,0.00,,,0.01,WUHU216HW,2013-01-11 19:38:00,
2013-01-11 14:43:00,32.0,22.3,30.22,NW,315,0.0,1.6,67,0.00,,,0.01,WUHU216HW,2013-01-11 19:43:00,
2013-01-11 14:48:00,32.4,22.7,30.22,ENE,68,0.7,0.9,67,0.00,,,0.01,WUHU216HW,2013-01-11 19:48:00,
2013-01-11 14:53:00,32.4,22.3,30.22,ENE,68,0.0,0.7,66,0.00,,,0.01,WUHU216HW,2013-01-11 19:53:00,
2013-01-11 14:58:00,32.4,22.7,30.23,SE,135,0.0,0.7,67,0.00,,,0.01,WUHU216HW,2013-01-11 19:58:00,
2013-01-11 15:03:00,32.4,22.0,30.22,ENE,68,2.5,2.9,65,0.00,,,0.01,WUHU216HW,2013-01-11 20:03:00,
2013-01-11 15:08:00,31.9,21.4,30.21,ENE,68,3.1,4.9,65,0.00,,,0.01,WUHU216HW,2013-01-11 20:08:00,
2013-01-11 15:13:00,31.7,21.6,30.21,NNW,338,0.9,6.0,66,0.00,,,0.01,WUHU216HW,2013-01-11 20:13:00,
2013-01-11 15:18:00,31.9,21.8,30.20,NW,315,0.4,6.0,66,0.00,,,0.01,WUHU216HW,2013-01-11 20:18:00,
2013-01-11 15:23:00,31.9,21.8,30.19,East,90,0.4,3.6,66,0.00,,,0.01,WUHU216HW,2013-01-11 20:23:00,
2013-01-11 15:28:00,32.0,22.0,30.18,ENE,68,1.6,4.0,66,0.00,,,0.01,WUHU216HW,2013-01-11 20:28:00,
2013-01-11 15:33:00,32.0,22.7,30.18,WNW,293,1.8,4.0,68,0.00,,,0.01,WUHU216HW,2013-01-11 20:33:00,
2013-01-11 15:38:00,31.9,22.5,30.18,WSW,248,1.6,3.4,68,0.00,,,0.01,WUHU216HW,2013-01-11 20:38:00,
2013-01-11 15:43:00,31.9,24.5,30.17,NNE,23,2.2,3.4,74,0.00,,,0.01,WUHU216HW,2013-01-11 20:43:00,
2013-01-11 15:48:00,31.5,23.9,30.17,NNW,338,1.1,2.7,73,0.00,,,0.01,WUHU216HW,2013-01-11 20:48:00,
2013-01-11 15:53:00,31.5,23.9,30.17,SSW,203,1.1,2.2,73,0.00,,,0.01,WUHU216HW,2013-01-11 20:53:00,
2013-01-11 15:58:00,31.5,23.9,30.17,West,270,1.3,2.0,73,0.00,,,0.01,WUHU216HW,2013-01-11 20:58:00,
2013-01-11 16:03:00,31.5,23.9,30.17,WSW,248,1.3,3.4,73,0.00,,,0.01,WUHU216HW,2013-01-11 21:03:00,
2013-01-11 16:08:00,31.3,23.7,30.16,WSW,248,1.6,3.4,73,0.00,,,0.01,WUHU216HW,2013-01-11 21:08:00,
2013-01-11 16:13:00,31.1,23.8,30.16,WNW,293,0.4,2.7,74,0.00,,,0.01,WUHU216HW,2013-01-11 21:13:00,
2013-01-11 16:18:00,31.1,24.1,30.16,WSW,248,0.7,2.5,75,0.00,,,0.01,WUHU216HW,2013-01-11 21:18:00,
2013-01-11 16:23:00,31.1,24.1,30.16,WSW,248,1.3,2.5,75,0.00,,,0.01,WUHU216HW,2013-01-11 21:23:00,
2013-01-11 16:28:00,31.1,24.1,30.16,West,270,1.1,2.2,75,0.00,,,0.01,WUHU216HW,2013-01-11 21:28:00,
2013-01-11 16:33:00,31.1,24.1,30.16,SSW,203,1.6,1.8,75,0.00,,,0.01,WUHU216HW,2013-01-11 21:33:00,
2013-01-11 16:38:00,31.1,24.5,30.16,SSW,203,1.8,2.5,76,0.00,,,0.01,WUHU216HW,2013-01-11 21:38:00,
2013-01-11 16:43:00,31.1,24.5,30.15,SSW,203,1.8,2.5,76,0.00,,,0.01,WUHU216HW,2013-01-11 21:43:00,
2013-01-11 16:48:00,31.1,24.5,30.15,SSW,203,1.1,2.5,76,0.00,,,0.01,WUHU216HW,2013-01-11 21:48:00,
2013-01-11 16:53:00,31.1,24.5,30.15,SSW,203,0.4,2.5,76,0.00,,,0.01,WUHU216HW,2013-01-11 21:53:00,
2013-01-11 16:58:00,31.3,24.7,30.15,SSE,158,0.9,1.1,76,0.00,,,0.01,WUHU216HW,2013-01-11 21:58:00,
2013-01-11 17:03:00,31.3,24.7,30.15,SSW,203,1.3,1.3,76,0.00,,,0.01,WUHU216HW,2013-01-11 22:03:00,
2013-01-11 17:08:00,31.3,24.9,30.15,SW,225,0.0,1.6,77,0.00,,,0.01,WUHU216HW,2013-01-11 22:08:00,
2013-01-11 17:13:00,31.3,24.9,30.15,SW,225,0.0,1.6,77,0.00,,,0.01,WUHU216HW,2013-01-11 22:13:00,
2013-01-11 17:18:00,31.3,24.9,30.14,NNW,338,0.0,0.9,77,0.00,,,0.01,WUHU216HW,2013-01-11 22:18:00,
2013-01-11 17:23:00,31.5,25.5,30.15,NNW,338,0.0,0.0,78,0.00,,,0.01,WUHU216HW,2013-01-11 22:23:00,
2013-01-11 17:28:00,31.5,25.5,30.15,SSW,203,0.7,1.8,78,0.00,,,0.01,WUHU216HW,2013-01-11 22:28:00,
2013-01-11 17:33:00,31.5,25.1,30.15,SSW,203,3.4,3.6,77,0.00,,,0.01,WUHU216HW,2013-01-11 22:33:00,
2013-01-11 17:38:00,31.5,24.9,30.15,SSW,203,1.3,3.6,76,0.00,,,0.01,WUHU216HW,2013-01-11 22:38:00,
2013-01-11 17:43:00,31.5,24.9,30.15,West,270,0.9,3.4,76,0.00,,,0.01,WUHU216HW,2013-01-11 22:43:00,
2013-01-11 17:48:00,31.5,24.9,30.15,NNE,23,0.4,1.6,76,0.00,,,0.01,WUHU216HW,2013-01-11 22:48:00,
2013-01-11 17:53:00,31.5,24.9,30.14,ENE,68,0.0,1.6,76,0.00,,,0.01,WUHU216HW,2013-01-11 22:53:00,
2013-01-11 17:58:00,31.5,25.1,30.14,ENE,68,0.0,0.9,77,0.00,,,0.01,WUHU216HW,2013-01-11 22:58:00,
2013-01-11 18:03:00,31.5,25.5,30.14,West,270,0.0,0.0,78,0.00,,,0.01,WUHU216HW,2013-01-11 23:03:00,
2013-01-11 18:08:00,31.5,25.5,30.14,West,270,0.0,1.1,78,0.00,,,0.01,WUHU216HW,2013-01-11 23:08:00,
2013-01-11 18:13:00,31.5,25.5,30.14,NW,315,0.0,1.1,78,0.00,,,0.01,WUHU216HW,2013-01-11 23:13:00,
2013-01-11 18:18:00,31.3,25.6,30.14,NNE,23,0.4,1.1,79,0.00,,,0.01,WUHU216HW,2013-01-11 23:18:00,
2013-01-11 18:23:00,31.1,25.4,30.14,NNW,338,0.7,1.1,79,0.00,,,0.01,WUHU216HW,2013-01-11 23:23:00,
2013-01-11 18:28:00,31.0,25.2,30.14,NW,315,0.0,1.1,79,0.00,,,0.01,WUHU216HW,2013-01-11 23:28:00,
2013-01-11 18:33:00,31.1,25.4,30.14,NW,315,0.0,0.7,79,0.00,,,0.01,WUHU216HW,2013-01-11 23:33:00,
2013-01-11 18:38:00,31.3,25.6,30.14,WNW,293,0.4,0.7,79,0.00,,,0.01,WUHU216HW,2013-01-11 23:38:00,
2013-01-11 18:43:00,31.3,25.6,30.14,West,270,1.8,1.8,79,0.00,,,0.01,WUHU216HW,2013-01-11 23:43:00,
2013-01-11 18:48:00,31.3,25.3,30.14,WNW,293,0.7,1.8,78,0.00,,,0.01,WUHU216HW,2013-01-11 23:48:00,
2013-01-11 18:53:00,31.3,25.6,30.13,NNW,338,1.1,1.8,79,0.00,,,0.01,WUHU216HW,2013-01-11 23:53:00,
2013-01-11 18:58:00,31.1,25.7,30.13,North,0,0.9,1.8,80,0.00,,,0.01,WUHU216HW,2013-01-11 23:58:00,
2013-01-11 19:03:00,31.0,26.5,30.13,NE,45,1.8,1.8,83,0.00,,,0.01,WUHU216HW,2013-01-12 00:03:00,
2013-01-11 19:08:00,30.8,25.9,30.12,NW,315,1.8,1.8,82,0.00,,,0.01,WUHU216HW,2013-01-12 00:08:00,
2013-01-11 19:13:00,30.8,25.7,30.12,WNW,293,0.9,1.8,81,0.00,,,0.01,WUHU216HW,2013-01-12 00:13:00,
2013-01-11 19:18:00,31.0,25.8,30.12,NE,45,0.0,1.8,81,0.00,,,0.01,WUHU216HW,2013-01-12 00:18:00,
2013-01-11 19:23:00,31.0,26.1,30.12,NE,45,1.3,1.3,82,0.00,,,0.01,WUHU216HW,2013-01-12 00:23:00,
2013-01-11 19:28:00,31.0,26.1,30.12,NNE,23,0.0,1.3,82,0.00,,,0.01,WUHU216HW,2013-01-12 00:28:00,
2013-01-11 19:33:00,30.8,25.9,30.12,NNW,338,0.0,1.3,82,0.00,,,0.01,WUHU216HW,2013-01-12 00:33:00,
2013-01-11 19:38:00,31.0,25.8,30.12,WSW,248,0.7,1.1,81,0.00,,,0.01,WUHU216HW,2013-01-12 00:38:00,
2013-01-11 19:43:00,31.1,26.0,30.12,SE,135,0.0,1.1,81,0.00,,,0.01,WUHU216HW,2013-01-12 00:43:00,
2013-01-11 19:48:00,31.3,25.9,30.13,SE,135,0.0,0.7,80,0.00,,,0.01,WUHU216HW,2013-01-12 00:48:00,
2013-01-11 19:53:00,31.3,25.9,30.13,SW,225,0.0,0.0,80,0.00,,,0.01,WUHU216HW,2013-01-12 00:53:00,
2013-01-11 19:58:00,31.3,25.9,30.13,SSE,158,1.3,1.3,80,0.00,,,0.01,WUHU216HW,2013-01-12 00:58:00,
2013-01-11 20:03:00,31.5,26.1,30.13,East,90,1.1,1.6,80,0.00,,,0.01,WUHU216HW,2013-01-12 01:03:00,
2013-01-11 20:08:00,31.3,25.9,30.13,ENE,68,0.9,1.6,80,0.00,,,0.01,WUHU216HW,2013-01-12 01:08:00,
2013-01-11 20:13:00,31.3,25.9,30.12,ESE,113,0.7,1.3,80,0.00,,,0.01,WUHU216HW,2013-01-12 01:13:00,
2013-01-11 20:19:00,31.1,25.7,30.12,ESE,113,0.4,1.3,80,0.00,,,0.01,WUHU216HW,2013-01-12 01:19:00,
2013-01-11 20:24:00,31.3,25.9,30.12,North,0,0.0,1.1,80,0.00,,,0.01,WUHU216HW,2013-01-12 01:24:00,
2013-01-11 20:29:00,31.3,25.9,30.12,WNW,293,0.7,1.1,80,0.00,,,0.01,WUHU216HW,2013-01-12 01:29:00,
2013-01-11 20:34:00,31.1,25.7,30.12,WNW,293,0.0,0.7,80,0.00,,,0.01,WUHU216HW,2013-01-12 01:34:00,
2013-01-11 20:39:00,31.1,26.0,30.11,North,0,0.0,0.7,81,0.00,,,0.01,WUHU216HW,2013-01-12 01:39:00,
2013-01-11 20:44:00,31.1,26.0,30.11,NNW,338,0.2,0.2,81,0.00,,,0.01,WUHU216HW,2013-01-12 01:44:00,
2013-01-11 20:49:00,30.8,25.7,30.11,WSW,248,0.7,1.1,81,0.00,,,0.01,WUHU216HW,2013-01-12 01:49:00,
2013-01-11 20:54:00,31.0,25.8,30.11,SSW,203,0.0,1.1,81,0.00,,,0.01,WUHU216HW,2013-01-12 01:54:00,
2013-01-11 20:59:00,31.1,26.0,30.11,WSW,248,0.0,0.7,81,0.00,,,0.01,WUHU216HW,2013-01-12 01:59:00,
2013-01-11 21:04:00,31.3,26.2,30.11,West,270,0.0,0.9,81,0.00,,,0.01,WUHU216HW,2013-01-12 02:04:00,
2013-01-11 21:09:00,31.3,26.2,30.11,SW,225,0.4,0.9,81,0.00,,,0.01,WUHU216HW,2013-01-12 02:09:00,
2013-01-11 21:14:00,31.5,26.4,30.11,SW,225,0.0,0.9,81,0.00,,,0.01,WUHU216HW,2013-01-12 02:14:00,
2013-01-11 21:19:00,31.5,26.4,30.10,West,270,0.7,1.1,81,0.00,,,0.01,WUHU216HW,2013-01-12 02:19:00,
2013-01-11 21:24:00,31.3,26.2,30.10,WNW,293,1.1,1.8,81,0.00,,,0.01,WUHU216HW,2013-01-12 02:24:00,
2013-01-11 21:29:00,31.3,26.2,30.11,SW,225,0.4,1.8,81,0.00,,,0.01,WUHU216HW,2013-01-12 02:29:00,
2013-01-11 21:34:00,31.3,26.2,30.10,SSE,158,0.0,1.1,81,0.00,,,0.01,WUHU216HW,2013-01-12 02:34:00,
2013-01-11 21:39:00,31.5,26.4,30.11,NW,315,0.0,0.4,81,0.00,,,0.01,WUHU216HW,2013-01-12 02:39:00,
2013-01-11 21:44:00,31.3,26.2,30.11,WSW,248,0.9,1.3,81,0.00,,,0.01,WUHU216HW,2013-01-12 02:44:00,
2013-01-11 21:50:00,31.3,26.2,30.11,West,270,1.6,1.6,81,0.00,,,0.01,WUHU216HW,2013-01-12 02:50:00,
2013-01-11 21:55:00,31.3,26.2,30.11,NNE,23,0.4,1.6,81,0.00,,,0.01,WUHU216HW,2013-01-12 02:55:00,
2013-01-11 22:00:00,31.3,26.8,30.10,NNE,23,0.7,1.6,83,0.00,,,0.01,WUHU216HW,2013-01-12 03:00:00,
2013-01-11 22:05:00,31.0,26.5,30.10,East,90,0.2,1.3,83,0.00,,,0.01,WUHU216HW,2013-01-12 03:05:00,
2013-01-11 22:10:00,31.1,26.7,30.10,ENE,68,0.2,0.7,83,0.00,,,0.01,WUHU216HW,2013-01-12 03:10:00,
2013-01-11 22:15:00,31.0,26.5,30.10,ENE,68,0.0,0.7,83,0.00,,,0.01,WUHU216HW,2013-01-12 03:15:00,
2013-01-11 22:20:00,31.1,26.7,30.10,NNW,338,0.0,0.2,83,0.00,,,0.01,WUHU216HW,2013-01-12 03:20:00,
2013-01-11 22:25:00,31.1,26.7,30.10,NNW,338,0.0,0.0,83,0.00,,,0.01,WUHU216HW,2013-01-12 03:25:00,
2013-01-11 22:30:00,31.0,26.5,30.10,WNW,293,0.4,0.4,83,0.00,,,0.01,WUHU216HW,2013-01-12 03:30:00,
2013-01-11 22:35:00,31.1,26.7,30.10,WNW,293,0.0,0.7,83,0.00,,,0.01,WUHU216HW,2013-01-12 03:35:00,
2013-01-11 22:40:00,31.3,26.8,30.10,West,270,0.0,0.7,83,0.00,,,0.01,WUHU216HW,2013-01-12 03:40:00,
2013-01-11 22:45:00,31.3,26.8,30.10,SW,225,0.0,0.0,83,0.00,,,0.01,WUHU216HW,2013-01-12 03:45:00,
2013-01-11 22:50:00,31.5,27.0,30.10,WNW,293,0.0,1.1,83,0.00,,,0.01,WUHU216HW,2013-01-12 03:50:00,
2013-01-11 22:55:00,31.5,27.0,30.10,West,270,0.0,1.1,83,0.00,,,0.01,WUHU216HW,2013-01-12 03:55:00,
2013-01-11 23:00:00,31.5,27.0,30.10,West,270,0.0,0.0,83,0.00,,,0.01,WUHU216HW,2013-01-12 04:00:00,
2013-01-11 23:05:00,31.7,27.2,30.10,West,270,0.0,1.1,83,0.00,,,0.01,WUHU216HW,2013-01-12 04:05:00,
2013-01-11 23:10:00,31.5,27.0,30.11,SSW,203,0.0,1.1,83,0.00,,,0.01,WUHU216HW,2013-01-12 04:10:00,
2013-01-11 23:15:00,31.7,27.2,30.10,SE,135,0.7,0.7,83,0.00,,,0.01,WUHU216HW,2013-01-12 04:15:00,
2013-01-11 23:20:00,31.7,27.2,30.10,SSE,158,0.7,0.7,83,0.00,,,0.01,WUHU216HW,2013-01-12 04:20:00,
2013-01-11 23:25:00,31.7,27.5,30.11,SSW,203,1.1,1.1,84,0.00,,,0.01,WUHU216HW,2013-01-12 04:25:00,
2013-01-11 23:30:00,31.7,27.5,30.11,SW,225,0.0,1.1,84,0.00,,,0.01,WUHU216HW,2013-01-12 04:30:00,
2013-01-11 23:35:00,31.9,27.6,30.11,SSW,203,0.0,0.9,84,0.00,,,0.01,WUHU216HW,2013-01-12 04:35:00,
2013-01-11 23:40:00,31.9,27.6,30.10,ESE,113,0.0,0.7,84,0.00,,,0.01,WUHU216HW,2013-01-12 04:40:00,
2013-01-11 23:45:00,31.9,27.6,30.09,East,90,0.9,0.9,84,0.00,,,0.01,WUHU216HW,2013-01-12 04:45:00,
2013-01-11 23:50:00,31.9,27.9,30.08,East,90,0.4,1.1,85,0.00,,,0.01,WUHU216HW,2013-01-12 04:50:00,
2013-01-11 23:55:00,31.7,27.5,30.08,East,90,0.0,1.1,84,0.00,,,0.01,WUHU216HW,2013-01-12 04:55:00,